When you browse on this site, cookies collect data to enhance your experience and personalize the content and advertising you see.
Visit our Privacy Policy to learn more. By continuing to use the site, you agree to this use of cookies and data.
  • In Austria
  • List of Countries
  • For 7 days
  • Water Temperature
  • Satellite Maps
  • Weather Map
  • News
  • Weather Widgets
  • user-avatar
    Login

    Hourly Weather Corozal

    Today, 26 June, Wednesday

    Time Temperature Precipitation Wind Pressure Humidity
    00:00 +27°C° 0 mm 2 mps 760 mmHg 92%
    01:00 +27°C° 0 mm 2 mps 760 mmHg 92%
    02:00 +27°C° 0 mm 2 mps 759 mmHg 92%
    03:00 +27°C° 0 mm 3 mps 759 mmHg 92%
    04:00 +27°C° 0 mm 3 mps 759 mmHg 91%
    05:00 +27°C° 0 mm 3 mps 759 mmHg 90%
    06:00 +27°C° 0 mm 3 mps 759 mmHg 89%
    07:00 +29°C° 0 mm 3 mps 760 mmHg 80%
    08:00 +30°C° 0 mm 3 mps 760 mmHg 72%
    09:00 +33°C° 0 mm 4 mps 760 mmHg 64%
    10:00 +34°C° 0 mm 4 mps 760 mmHg 58%
    11:00 +35°C° 0 mm 4 mps 760 mmHg 52%
    12:00 +37°C° 0 mm 4 mps 760 mmHg 46%
    13:00 +36°C° 0 mm 5 mps 759 mmHg 46%
    14:00 +36°C° 0 mm 5 mps 759 mmHg 46%
    15:00 +36°C° 0 mm 5 mps 758 mmHg 46%
    16:00 +35°C° 0 mm 4 mps 758 mmHg 53%
    17:00 +33°C° 0 mm 4 mps 759 mmHg 60%
    18:00 +31°C° 0 mm 3 mps 759 mmHg 67%
    19:00 +30°C° 0 mm 3 mps 759 mmHg 73%
    20:00 +29°C° 0 mm 3 mps 760 mmHg 80%
    21:00 +27°C° 0 mm 2 mps 760 mmHg 86%
    22:00 +27°C° 0 mm 2 mps 760 mmHg 87%
    23:00 +27°C° 0 mm 2 mps 760 mmHg 88%

    Tomorrow, 27 June, Thursday

    Time Temperature Precipitation Wind Pressure Humidity
    00:00 +27°C° 0 mm 2 mps 760 mmHg 89%
    01:00 +27°C° 0 mm 2 mps 760 mmHg 91%
    02:00 +27°C° 0 mm 2 mps 759 mmHg 92%
    03:00 +26°C° 0 mm 2 mps 759 mmHg 93%
    04:00 +26°C° 0 mm 2 mps 759 mmHg 93%
    05:00 +27°C° 0 mm 2 mps 759 mmHg 92%
    06:00 +27°C° 0 mm 2 mps 760 mmHg 92%
    07:00 +28°C° 0.2 mm 2 mps 760 mmHg 84%
    08:00 +30°C° 0.2 mm 2 mps 760 mmHg 75%
    09:00 +33°C° 0.2 mm 3 mps 761 mmHg 67%
    10:00 +34°C° 0.1 mm 3 mps 760 mmHg 59%
    11:00 +36°C° 0.1 mm 4 mps 760 mmHg 50%
    12:00 +37°C° 0.1 mm 4 mps 760 mmHg 42%
    13:00 +37°C° 0 mm 4 mps 759 mmHg 44%
    14:00 +37°C° 0 mm 4 mps 759 mmHg 45%
    15:00 +36°C° 0 mm 4 mps 759 mmHg 47%
    16:00 +35°C° 0 mm 4 mps 759 mmHg 53%
    17:00 +33°C° 0 mm 4 mps 759 mmHg 59%
    18:00 +31°C° 0 mm 3 mps 759 mmHg 65%
    19:00 +30°C° 0 mm 3 mps 759 mmHg 72%
    20:00 +29°C° 0 mm 3 mps 760 mmHg 80%
    21:00 +27°C° 0 mm 2 mps 760 mmHg 88%
    22:00 +27°C° 0 mm 2 mps 760 mmHg 90%
    23:00 +27°C° 0 mm 2 mps 760 mmHg 92%

    Day after tomorrow, 28 June, Friday

    Time Temperature Precipitation Wind Pressure Humidity
    00:00 +26°C° 0 mm 1 mps 760 mmHg 94%
    01:00 +26°C° 0 mm 1 mps 760 mmHg 94%
    02:00 +26°C° 0 mm 1 mps 759 mmHg 94%
    03:00 +26°C° 0 mm 1 mps 759 mmHg 95%
    04:00 +26°C° 0 mm 1 mps 759 mmHg 94%
    05:00 +26°C° 0 mm 1 mps 759 mmHg 94%
    06:00 +26°C° 0 mm 1 mps 760 mmHg 94%
    07:00 +28°C° 0 mm 1 mps 760 mmHg 81%
    08:00 +31°C° 0 mm 1 mps 760 mmHg 69%
    09:00 +34°C° 0 mm 2 mps 761 mmHg 57%
    10:00 +35°C° 0 mm 2 mps 760 mmHg 50%
    11:00 +37°C° 0 mm 2 mps 760 mmHg 44%
    12:00 +38°C° 0 mm 2 mps 760 mmHg 38%
    13:00 +38°C° 0 mm 3 mps 759 mmHg 38%
    14:00 +37°C° 0 mm 3 mps 758 mmHg 39%
    15:00 +37°C° 0 mm 4 mps 758 mmHg 40%
    16:00 +36°C° 0 mm 4 mps 758 mmHg 48%
    17:00 +34°C° 0 mm 4 mps 758 mmHg 56%
    18:00 +32°C° 0 mm 4 mps 758 mmHg 63%
    19:00 +30°C° 0 mm 3 mps 759 mmHg 70%
    20:00 +29°C° 0 mm 3 mps 759 mmHg 77%
    21:00 +27°C° 0 mm 2 mps 760 mmHg 84%
    22:00 +27°C° 0.2 mm 2 mps 760 mmHg 87%
    23:00 +26°C° 0.2 mm 1 mps 760 mmHg 90%

    29 June, Saturday

    Time Temperature Precipitation Wind Pressure Humidity
    00:00 +26°C° 0.2 mm 1 mps 760 mmHg 93%
    01:00 +26°C° 0.3 mm 1 mps 759 mmHg 95%
    02:00 +25°C° 0.3 mm 1 mps 759 mmHg 96%
    03:00 +25°C° 0.3 mm 1 mps 759 mmHg 97%
    04:00 +25°C° 0.1 mm 1 mps 759 mmHg 97%
    05:00 +25°C° 0.1 mm 1 mps 759 mmHg 97%
    06:00 +25°C° 0.1 mm 1 mps 759 mmHg 96%
    07:00 +27°C° 0.3 mm 1 mps 760 mmHg 88%
    08:00 +29°C° 0.3 mm 1 mps 760 mmHg 79%
    09:00 +31°C° 0.3 mm 1 mps 761 mmHg 70%
    10:00 +32°C° 0 mm 1 mps 760 mmHg 60%
    11:00 +35°C° 0 mm 2 mps 760 mmHg 51%
    12:00 +37°C° 0 mm 2 mps 759 mmHg 41%
    13:00 +36°C° 0 mm 3 mps 759 mmHg 42%
    14:00 +36°C° 0 mm 3 mps 759 mmHg 42%
    15:00 +36°C° 0 mm 4 mps 758 mmHg 42%
    16:00 +35°C° 0 mm 3 mps 758 mmHg 49%
    17:00 +33°C° 0 mm 3 mps 758 mmHg 55%
    18:00 +31°C° 0 mm 3 mps 758 mmHg 61%
    19:00 +29°C° 0 mm 3 mps 759 mmHg 68%
    20:00 +28°C° 0 mm 2 mps 759 mmHg 75%
    21:00 +27°C° 0 mm 2 mps 760 mmHg 83%
    22:00 +27°C° 0 mm 2 mps 760 mmHg 84%
    23:00 +27°C° 0 mm 2 mps 760 mmHg 85%

    30 June, Sunday

    Time Temperature Precipitation Wind Pressure Humidity
    00:00 +27°C° 0 mm 2 mps 760 mmHg 86%
    01:00 +27°C° 0.6 mm 2 mps 759 mmHg 89%
    02:00 +26°C° 0.6 mm 2 mps 759 mmHg 91%
    03:00 +26°C° 0.6 mm 2 mps 759 mmHg 94%
    04:00 +26°C° 2.6 mm 2 mps 759 mmHg 95%
    05:00 +26°C° 2.6 mm 2 mps 759 mmHg 96%
    06:00 +26°C° 2.6 mm 2 mps 759 mmHg 97%
    07:00 +26°C° 2.4 mm 2 mps 760 mmHg 96%
    08:00 +26°C° 2.4 mm 2 mps 760 mmHg 95%
    09:00 +27°C° 2.4 mm 2 mps 760 mmHg 95%
    10:00 +27°C° 0.8 mm 2 mps 760 mmHg 94%
    11:00 +27°C° 0.8 mm 2 mps 760 mmHg 94%
    12:00 +27°C° 0.8 mm 2 mps 760 mmHg 93%
    13:00 +26°C° 2.4 mm 3 mps 760 mmHg 94%
    14:00 +26°C° 2.4 mm 3 mps 759 mmHg 94%
    15:00 +26°C° 2.4 mm 3 mps 759 mmHg 94%
    16:00 +26°C° 1.2 mm 3 mps 759 mmHg 95%
    17:00 +26°C° 1.2 mm 3 mps 759 mmHg 95%
    18:00 +26°C° 1.2 mm 3 mps 759 mmHg 96%
    19:00 +26°C° 0 mm 3 mps 759 mmHg 95%
    20:00 +26°C° 0 mm 3 mps 760 mmHg 95%
    21:00 +26°C° 0 mm 3 mps 760 mmHg 95%
    22:00 +26°C° 0.2 mm 3 mps 760 mmHg 95%
    23:00 +26°C° 0.2 mm 3 mps 760 mmHg 95%

    1 July, Monday

    Time Temperature Precipitation Wind Pressure Humidity
    00:00 +26°C° 0.2 mm 3 mps 760 mmHg 95%
    01:00 +26°C° 0.4 mm 3 mps 759 mmHg 95%
    02:00 +26°C° 0.4 mm 3 mps 759 mmHg 95%
    03:00 +26°C° 0.4 mm 3 mps 759 mmHg 95%
    04:00 +26°C° 1.2 mm 3 mps 759 mmHg 95%
    05:00 +26°C° 1.2 mm 3 mps 759 mmHg 96%
    06:00 +26°C° 1.2 mm 3 mps 760 mmHg 96%
    07:00 +27°C° 1.8 mm 3 mps 760 mmHg 93%
    08:00 +28°C° 1.8 mm 3 mps 761 mmHg 91%
    09:00 +29°C° 1.8 mm 3 mps 761 mmHg 89%
    10:00 +30°C° 0.8 mm 3 mps 761 mmHg 84%
    11:00 +32°C° 0.8 mm 4 mps 761 mmHg 79%
    12:00 +33°C° 0.8 mm 4 mps 760 mmHg 74%
    13:00 +33°C° 0.1 mm 4 mps 760 mmHg 71%
    14:00 +33°C° 0.1 mm 4 mps 759 mmHg 68%
    15:00 +34°C° 0.1 mm 4 mps 759 mmHg 64%
    16:00 +33°C° 0 mm 4 mps 759 mmHg 69%
    17:00 +31°C° 0 mm 3 mps 759 mmHg 73%
    18:00 +30°C° 0 mm 3 mps 759 mmHg 78%
    19:00 +29°C° 0 mm 3 mps 759 mmHg 83%
    20:00 +28°C° 0 mm 3 mps 760 mmHg 87%
    21:00 +27°C° 0 mm 3 mps 760 mmHg 92%
    22:00 +27°C° 0.1 mm 3 mps 760 mmHg 93%
    23:00 +27°C° 0.1 mm 3 mps 760 mmHg 93%
    Show more